Home > Weather > Bucharest > Past weeks

Flag for Romania Weather for the Past 2 Weeks in Bucharest, Romania

Now
30 °F

Clear.


Feels Like: 30 °F
Forecast: 26 / 53 °F
Wind: No wind

Location: Bucharest / Imh

Current Time: Feb 8, 2016 at 11:20:41 PM

Latest Report: Feb 8, 2016 at 11:00 PM


Visibility: 10 mi

Pressure: 30.18 "Hg

Humidity: 93%

Dew point: 28 °F

Location of BucharestLocation

Historic Weather in Bucharest — Graph

°F

Bucharest Temperature Yesterday

Maximum temperature yesterday: 46 °F (at 3:00 PM)
Minimum temperature yesterday: 23 °F (at 7:00 AM)
Average temperature yesterday: 34 °F

High & Low Weather Summary for the Past Weeks

 TemperatureHumidityPressure
High63 °F (Feb 3, 3:30 PM)100% (Jan 27, 12:30 AM)30.57 "Hg (Jan 27, 12:30 AM)
Low5 °F (Jan 25, 2:00 AM)42% (Feb 7, 1:00 PM)29.77 "Hg (Feb 4, 5:30 AM)
Average36 °F87%30.21 "Hg
* Reported Jan 24 10:00 PM — Feb 8 10:00 PM, Bucharest, Weather by CustomWeather, © 2016

Note: Actual official high and low records may vary slightly from our data, if they occured in-between our weather recording intervals... More about our weather records

Advertising

Bucharest Weather History for the Previous 24 Hours

 ConditionsComfort  
Time TempWeatherWind HumidityBarometerVisibility
10:00 PM
Mon, Feb 8
34 °FClear.No wind93%30.18 "Hg10 mi
9:30 PM34 °FClear.No wind93%30.18 "Hg10 mi
9:00 PM34 °FClear.2 mph87%30.18 "Hg10 mi
8:30 PM36 °FClear.1 mph93%30.18 "Hg10 mi
8:00 PM36 °FClear.2 mph87%30.21 "Hg10 mi
7:30 PM37 °FClear.2 mph87%30.21 "Hg10 mi
7:00 PM36 °FClear.No wind87%30.21 "Hg10 mi
6:30 PM39 °FClear.3 mph75%30.21 "Hg10 mi
6:00 PM39 °FClear.3 mph70%30.18 "Hg10 mi
5:30 PM43 °FPassing clouds.3 mph61%30.18 "HgN/A
5:00 PM45 °FSunny.5 mph53%30.18 "Hg10 mi
4:30 PM45 °FPassing clouds.5 mph57%30.18 "HgN/A
4:00 PM46 °FSunny.7 mph57%30.18 "Hg10 mi
3:30 PM46 °FPassing clouds.6 mph57%30.18 "HgN/A
3:00 PM48 °FPassing clouds.6 mph58%30.18 "HgN/A
2:30 PM46 °FSunny.3 mph57%30.21 "Hg10 mi
2:00 PM48 °FPassing clouds.3 mph50%30.21 "HgN/A
1:30 PM46 °FSunny.2 mph53%30.21 "Hg10 mi
1:00 PM45 °FSunny.2 mph57%30.21 "Hg10 mi
12:30 PM43 °FSunny.1 mph66%30.24 "Hg10 mi
12:00 PM43 °FSunny.2 mph71%30.24 "Hg10 mi
11:30 AM41 °FClear.2 mph76%30.24 "Hg6 mi
11:00 AM37 °FClear.2 mph87%30.24 "Hg5 mi
10:30 AM36 °FFog.1 mph93%30.24 "Hg4 mi
10:00 AM34 °FFog.No wind93%30.24 "Hg3 mi
9:30 AM32 °FIce fog.2 mph93%30.24 "Hg2 mi
9:00 AM34 °FFog.1 mph81%30.24 "Hg2 mi
8:30 AM27 °FIce fog.1 mph100%30.24 "Hg2 mi
8:00 AM27 °FIce fog.2 mph93%30.24 "Hg2 mi
7:30 AM27 °FIce fog.1 mph100%30.24 "Hg2 mi
7:00 AM27 °FFog.2 mph93%30.24 "Hg4 mi
6:30 AM27 °FIce fog.No wind93%30.24 "Hg3 mi
6:00 AM27 °FIce fog.2 mph100%30.24 "Hg3 mi
5:30 AM27 °FIce fog.No wind93%30.24 "Hg2 mi
5:00 AM27 °FIce fog.1 mph93%30.24 "Hg1 mi
4:30 AM27 °FIce fog.1 mph93%30.24 "Hg3 mi
4:00 AM27 °FFog.1 mph93%30.24 "Hg4 mi
3:00 AM28 °FClear.2 mph93%30.24 "Hg4 mi
2:30 AM27 °FClear.2 mph93%30.27 "Hg4 mi
1:30 AM27 °FClear.2 mph100%30.27 "Hg5 mi
1:00 AM27 °FClear.2 mph93%30.27 "Hg5 mi
12:30 AM27 °FClear.2 mph93%30.27 "Hg5 mi
12:00 AM28 °FClear.2 mph93%30.27 "Hg10 mi
11:30 PM
Sun, Feb 7
28 °FClear.3 mph93%30.30 "Hg10 mi
11:00 PM30 °FClear.3 mph93%30.30 "Hg10 mi
Weather by CustomWeather, © 2016

See weather overviewHow to use our weather pages